TimePST,TemperatureF,Dew PointF,Humidity,Sea Level PressureIn,VisibilityMPH,Wind Direction,Wind SpeedMPH,Gust SpeedMPH,PrecipitationIn,Events,Conditions,WindDirDegrees,DateUTC
12:00 AM,41.0,33.8,76,30.14,40.0,SE,11.5,18.4,N/A,,Mostly Cloudy,140,2013-03-01 08:00:00
1:00 AM,41.0,33.8,76,30.14,40.0,SE,10.4,-,N/A,,Mostly Cloudy,130,2013-03-01 09:00:00
2:00 AM,41.0,33.8,76,30.14,40.0,ESE,11.5,18.4,N/A,,Scattered Clouds,120,2013-03-01 10:00:00
3:00 AM,41.0,33.8,76,30.13,40.0,ESE,12.7,20.7,N/A,,Mostly Cloudy,120,2013-03-01 11:00:00
4:00 AM,41,35,70,30.12,37,ESE,10.4,,,,Scattered Clouds,120,2013-03-01 12:00:00
5:00 AM,41.0,33.8,76,30.13,40.0,SE,5.8,-,N/A,,Mostly Cloudy,130,2013-03-01 13:00:00
6:00 AM,39.2,33.8,81,30.14,40.0,WSW,4.6,-,N/A,,Mostly Cloudy,250,2013-03-01 14:00:00
7:00 AM,37.4,33.8,87,30.14,40.0,NW,2.3,-,N/A,,Overcast,320,2013-03-01 15:00:00
8:00 AM,41.0,35.6,81,30.14,40.0,ESE,8.1,18.4,N/A,,Mostly Cloudy,110,2013-03-01 16:00:00
9:00 AM,44.6,23.0,43,30.13,40.0,ESE,12.7,-,N/A,,Mostly Cloudy,110,2013-03-01 17:00:00
10:00 AM,45,37,64,30.12,37,South,6.9,,,,Mostly Cloudy,190,2013-03-01 18:00:00
10:00 AM,44.6,37.4,76,30.12,40.0,South,6.9,-,N/A,,Mostly Cloudy,190,2013-03-01 18:00:00
11:00 AM,50.0,37.4,62,30.11,40.0,ESE,8.1,-,N/A,,Mostly Cloudy,110,2013-03-01 19:00:00
12:00 PM,53.6,39.2,58,30.08,40.0,Calm,Calm,-,N/A,,Mostly Cloudy,0,2013-03-01 20:00:00
1:00 PM,53.6,39.2,58,30.10,40.0,NW,4.6,-,N/A,,Overcast,310,2013-03-01 21:00:00
2:00 PM,55.4,39.2,54,30.08,40.0,ENE,4.6,-,N/A,,Overcast,70,2013-03-01 22:00:00
3:00 PM,59.0,37.4,45,30.09,40.0,Calm,Calm,-,N/A,,Overcast,0,2013-03-01 23:00:00
4:00 PM,60,37,30,30.10,37,West,13.8,,,,Overcast,280,2013-03-02 00:00:00
4:00 PM,59.0,37.4,45,30.10,40.0,West,16.1,-,N/A,,Overcast,280,2013-03-02 00:00:00
5:00 PM,57.2,35.6,44,30.09,40.0,ESE,10.4,-,N/A,,Overcast,120,2013-03-02 01:00:00
6:00 PM,53.6,35.6,51,30.07,40.0,ESE,8.1,-,N/A,,Overcast,110,2013-03-02 02:00:00
7:00 PM,53.6,35.6,51,30.10,40.0,Calm,Calm,-,N/A,,Overcast,0,2013-03-02 03:00:00
8:00 PM,50.0,35.6,58,30.11,40.0,Calm,Calm,-,N/A,,Mostly Cloudy,0,2013-03-02 04:00:00
9:00 PM,48.2,35.6,62,30.12,40.0,SE,2.3,-,N/A,,Mostly Cloudy,130,2013-03-02 05:00:00
10:00 PM,48.2,35.6,62,30.11,40.0,Calm,Calm,-,N/A,,Mostly Cloudy,0,2013-03-02 06:00:00
11:00 PM,50.0,35.6,58,30.12,40.0,East,5.8,-,N/A,,Scattered Clouds,80,2013-03-02 07:00:00